Location: Blue Mountain Vista Observatory
(40.6992°N, 75.9422°W)
Time: 07:17:56
(UTC-04:00)

IDEFIX/ARIANE 42P - Visible Passes

Search period start: 24 October 2014 00:00
Search period end: 02 November 2014 23:00
Orbit: 786 x 803 km, 98.3° (Epoch: 23 October)

Date Brightness Start Highest point End Pass type
(mag) Time Alt. Az. Time Alt. Az. Time Alt. Az.
24 Oct 3.8 19:23:34 20° ENE 19:23:50 20° ENE 19:27:32 10° NNE visible
24 Oct 3.6 21:04:24 42° NW 21:04:24 42° NW 21:08:11 10° NNW visible
25 Oct 4.4 18:55:16 11° ENE 18:56:05 11° ENE 18:57:36 10° NE visible
25 Oct 3.0 20:36:06 54° N 20:36:06 54° N 20:40:08 10° NNW visible
26 Oct 3.1 20:07:48 41° NE 20:07:48 41° NE 20:11:49 10° N visible
26 Oct 5.1 21:48:38 17° WNW 21:48:38 17° WNW 21:50:35 10° NW visible
27 Oct 3.6 19:39:30 26° NE 19:39:30 26° NE 19:43:12 10° N visible
27 Oct 4.4 21:20:20 28° NW 21:20:20 28° NW 21:23:10 10° NNW visible
28 Oct 4.1 19:11:11 16° ENE 19:11:11 16° ENE 19:14:03 10° NNE visible
28 Oct 3.7 20:52:01 39° NNW 20:52:01 39° NNW 20:55:18 10° NNW visible
29 Oct 3.3 20:23:43 40° N 20:23:43 40° N 20:27:08 10° N visible
29 Oct 5.5 22:04:33 11° WNW 22:04:33 11° WNW 22:04:58 10° NW visible
30 Oct 3.5 19:55:24 30° NE 19:55:24 30° NE 19:58:42 10° N visible
30 Oct 4.9 21:36:14 19° NW 21:36:14 19° NW 21:38:02 10° NW visible
31 Oct 4.0 19:27:05 20° NE 19:27:05 20° NE 19:29:53 10° NNE visible
31 Oct 4.3 21:07:55 27° NW 21:07:55 27° NW 21:10:23 10° NNW visible
01 Nov 4.4 18:58:46 12° NE 18:58:46 12° NE 19:00:12 10° NE visible
01 Nov 3.8 20:39:36 32° NNW 20:39:36 32° NNW 20:42:22 10° NNW visible
02 Nov 3.7 19:11:17 30° NNE 19:11:17 30° NNE 19:14:05 10° N visible
02 Nov 5.4 20:52:07 12° NW 20:52:07 12° NW 20:52:41 10° NW visible
